Lid_Strength_Index
16 15 15 16 16 15 16 15 17 15 15 12 11 11 11 11 11 11 12 12 13 13 13 12 12 11 11 12 12 12 12 13 12 12 12 12 12 12 12 12 12 12 12 11
17 15 15 17 16 15 14 13 14 13 13 10 10 9 10 10 10 11 11 11 11 11 11 12 12 12 12 12 12 12 13 13 13 13 13 13 13 12 12 13 13 13 13 13
19 17 17 18 16 14 14 14 13 15 13 11 11 10 10 10 10 10 11 11 11 11 11 11 11 11 12 11 11 12 12 13 13 13 13 12 12 12 12 12 12 12 12 12
20 19 24 17 14 14 14 13 13 13 13 11 10 10 10 9 10 10 11 11 11 11 10 10 10 10 10 10 11 12 12 12 12 12 12 12 12 12 12 12 13 13 13 13
21 22 19 17 15 15 15 15 13 13 12 12 11 11 11 10 9 9 10 10 11 10 11 11 11 11 11 12 12 12 13 13 13 13 13 13 14 13 13 13 13 13 13 14
19 22 22 19 15 14 14 18 14 12 12 12 12 13 12 10 10 11 11 11 11 11 12 12 12 12 13 14 14 14 14 14 14 14 14 14 14 14 14 14 14 14 14 14
19 20 18 16 14 14 18 17 13 12 12 12 12 11 11 11 11 11 11 11 12 13 14 14 13 13 15 15 15 15 15 14 14 15 15 14 14 15 15 15 15 16 16 15
19 21 22 14 14 16 14 14 12 12 12 11 11 12 12 12 12 11 12 12 13 14 15 15 15 15 16 17 16 16 16 16 16 16 16 15 15 15 16 17 17 17 18 17
18 18 15 14 14 14 13 13 12 12 11 11 12 12 12 12 12 12 13 13 14 15 16 17 17 17 17 17 17 17 17 17 17 17 16 16 17 17 17 18 18 18 18 17
16 16 15 14 14 13 13 13 12 12 11 12 12 12 12 13 13 14 14 15 16 17 18 18 18 17 18 17 17 18 18 18 18 18 18 18 18 18 18 18 18 18 18 18
17 15 15 14 14 13 13 13 12 12 12 11 12 13 13 13 14 15 16 17 17 18 18 18 18 18 18 18 18 19 19 19 19 18 19 19 18 18 18 17 17 17 17 17
17 15 14 14 14 14 13 13 13 12 13 12 12 13 13 14 15 16 17 18 18 18 19 19 19 19 18 18 19 20 19 19 18 19 19 19 19 19 17 16 16 16 15 15
14 15 14 13 13 13 13 12 13 12 12 13 13 13 14 17 17 16 18 19 19 19 19 20 19 20 19 19 18 19 19 18 19 18 19 19 19 19 19 18 16 16 15 14
14 16 15 15 14 13 13 12 11 13 13 13 14 16 17 17 17 19 19 19 19 19 19 19 19 20 19 18 18 19 19 17 18 18 18 18 19 19 19 19 19 17 15 14
15 16 15 15 15 14 13 13 14 15 16 17 16 17 17 18 19 19 19 19 19 20 19 19 20 20 18 18 18 18 17 17 17 17 18 18 18 18 18 18 18 17 16 15
16 17 16 16 15 14 14 14 14 16 17 18 18 18 18 19 19 19 19 19 20 20 19 19 19 18 17 17 18 18 17 16 16 18 18 18 18 18 18 17 17 17 17 16
17 17 16 16 15 15 15 14 15 16 18 19 18 18 18 19 19 20 20 19 19 19 18 18 18 17 16 17 17 17 17 17 17 18 18 18 18 18 17 16 17 16 16 14
17 16 16 16 16 15 15 15 16 18 18 19 18 18 18 18 19 20 20 20 19 19 18 17 17 16 16 16 16 16 16 17 18 18 18 18 17 16 17 17 17 15 15 13
17 17 16 15 15 15 16 17 16 17 17 18 18 19 18 19 19 19 19 20 20 20 18 17 16 16 16 16 15 16 17 18 18 18 18 17 17 17 17 17 15 14 13 12
17 17 17 17 16 17 18 18 18 17 17 18 20 21 21 20 19 19 19 20 19 18 16 16 16 16 16 16 16 17 17 18 19 19 18 17 17 17 16 15 14 13 12 12
18 18 18 17 19 18 18 18 18 18 19 19 19 20 21 20 19 19 20 20 18 17 16 16 17 17 17 17 16 16 18 19 19 19 18 18 17 16 15 14 14 13 13 12
19 19 19 19 19 19 19 18 18 18 18 19 20 20 20 20 20 20 18 19 17 16 16 17 17 17 15 14 16 18 19 19 19 18 18 17 16 15 15 14 13 13 13 12
19 19 19 19 20 20 20 20 19 19 19 19 20 20 19 19 19 20 20 18 17 17 16 17 16 15 14 16 18 19 19 19 18 18 18 16 15 15 14 14 13 13 13 13
19 20 21 20 22 22 22 21 20 19 19 18 19 19 19 19 19 18 17 16 16 17 16 17 16 15 14 18 19 19 19 18 18 18 16 14 14 15 15 14 14 14 13 13
20 21 22 22 21 21 21 21 21 20 19 19 20 20 19 19 18 18 18 18 17 17 18 17 16 16 18 18 19 18 18 18 17 15 15 16 16 15 14 14 14 14 13 12
21 20 20 20 19 20 20 20 20 19 19 19 19 19 19 18 18 17 19 18 18 18 19 19 19 18 18 19 18 18 18 17 17 17 15 16 16 16 15 15 15 14 14 13
22 18 20 20 20 19 19 19 19 19 18 19 19 19 18 18 18 18 18 20 20 20 20 19 19 19 18 18 18 18 17 17 16 16 16 17 17 17 17 16 15 15 14 14